WAT3630 SASA-SABE

Flight info

Callsign WAT3630
Flight time 1h 38m
Altitude 35000
Route VUL1 PONPI UT681 PUBER UL550 ROS UT672 MULTA UW24 SNT SNT9R
Aircraft A21N/M-SDE3FGHIRWY/LB1

Departure

Time 2026-04-26 21:09
Airport Martín Miguel de Güemes International Airport (SASA)

Arrival

Time 2026-04-26 22:48
Airport Aeroparque Jorge Newbery (SABE)
Time Latitude Longitude Altitude Speed Heading
2026-04-26 20:44 -24.84469 -65.47904 4032 ft 0 kts 73°
2026-04-26 20:58 -24.84466 -65.47894 4032 ft 2 kts 73°
2026-04-26 20:59 -24.84463 -65.47882 4031 ft 0 kts 73°
2026-04-26 21:00 -24.84467 -65.47896 4032 ft 2 kts 73°
2026-04-26 21:01 -24.84471 -65.47912 4033 ft 2 kts 73°
2026-04-26 21:01 -24.84475 -65.47927 4033 ft 2 kts 73°
2026-04-26 21:01 -24.84480 -65.47943 4034 ft 2 kts 77°
2026-04-26 21:01 -24.84480 -65.47960 4034 ft 2 kts 101°
2026-04-26 21:02 -24.84478 -65.47968 4035 ft 1 kts 112°
2026-04-26 21:02 -24.84476 -65.47973 4035 ft 0 kts 111°
2026-04-26 21:05 -24.84482 -65.47961 4034 ft 1 kts 143°
2026-04-26 21:05 -24.84493 -65.47968 4035 ft 2 kts 225°
2026-04-26 21:05 -24.84498 -65.47975 4035 ft 0 kts 236°
2026-04-26 21:06 -24.84528 -65.48035 4037 ft 13 kts 248°
2026-04-26 21:06 -24.84552 -65.48125 4040 ft 10 kts 255°
2026-04-26 21:06 -24.84569 -65.48194 4043 ft 8 kts 253°
2026-04-26 21:07 -24.84584 -65.48247 4045 ft 8 kts 252°
2026-04-26 21:07 -24.84602 -65.48302 4047 ft 6 kts 246°
2026-04-26 21:07 -24.84627 -65.48346 4049 ft 7 kts 230°
2026-04-26 21:07 -24.84660 -65.48387 4051 ft 5 kts 229°
2026-04-26 21:08 -24.84676 -65.48406 4052 ft 1 kts 225°
2026-04-26 21:08 -24.84691 -65.48418 4053 ft 4 kts 209°
2026-04-26 21:08 -24.84761 -65.48440 4055 ft 28 kts 189°
2026-04-26 21:08 -24.85199 -65.48537 4062 ft 98 kts 189°
2026-04-26 21:09 -24.86074 -65.48724 4076 ft 156 kts 191°
2026-04-26 21:09 -24.87318 -65.48993 4183 ft 196 kts 189°
2026-04-26 21:09 -24.88648 -65.49264 4779 ft 197 kts 189°
2026-04-26 21:09 -24.89985 -65.49532 5463 ft 198 kts 188°
2026-04-26 21:10 -24.91340 -65.49804 6081 ft 197 kts 188°
2026-04-26 21:10 -24.92718 -65.50079 6411 ft 208 kts 189°
2026-04-26 21:10 -24.94180 -65.50369 6749 ft 218 kts 189°
2026-04-26 21:10 -24.95705 -65.50671 7184 ft 223 kts 188°
2026-04-26 21:11 -24.97248 -65.50976 7666 ft 226 kts 188°
2026-04-26 21:11 -24.98783 -65.51279 8173 ft 227 kts 188°
2026-04-26 21:11 -25.00400 -65.51376 8510 ft 236 kts 170°
2026-04-26 21:11 -25.02042 -65.50946 8736 ft 253 kts 162°
2026-04-26 21:12 -25.03802 -65.50377 8981 ft 271 kts 162°
2026-04-26 21:12 -25.05677 -65.49797 9338 ft 287 kts 163°
2026-04-26 21:12 -25.07631 -65.49234 9918 ft 292 kts 164°
2026-04-26 21:12 -25.09605 -65.48689 10563 ft 297 kts 165°
2026-04-26 21:13 -25.11654 -65.48138 10890 ft 313 kts 165°
2026-04-26 21:13 -25.13825 -65.47566 11179 ft 330 kts 166°
2026-04-26 21:13 -25.16124 -65.46968 11479 ft 347 kts 166°
2026-04-26 21:13 -25.18561 -65.46338 11784 ft 363 kts 166°
2026-04-26 21:14 -25.21076 -65.45689 12093 ft 378 kts 166°
2026-04-26 21:14 -25.23643 -65.45027 12574 ft 385 kts 167°
2026-04-26 21:14 -25.26268 -65.44349 13174 ft 389 kts 167°
2026-04-26 21:14 -25.28909 -65.43666 13782 ft 392 kts 167°
2026-04-26 21:15 -25.31578 -65.42976 14330 ft 397 kts 168°
2026-04-26 21:15 -25.34301 -65.42274 14853 ft 401 kts 168°
2026-04-26 21:15 -25.37022 -65.41569 15414 ft 405 kts 169°
2026-04-26 21:15 -25.39782 -65.40856 15947 ft 410 kts 169°
2026-04-26 21:16 -25.42555 -65.40140 16457 ft 414 kts 169°
2026-04-26 21:16 -25.45398 -65.39405 16981 ft 417 kts 170°
2026-04-26 21:16 -25.48234 -65.38670 17445 ft 422 kts 170°
2026-04-26 21:16 -25.51094 -65.37930 17941 ft 426 kts 171°
2026-04-26 21:17 -25.53977 -65.37184 18469 ft 429 kts 171°
2026-04-26 21:17 -25.56887 -65.36429 18967 ft 431 kts 171°
2026-04-26 21:17 -25.59832 -65.35665 19486 ft 434 kts 172°
2026-04-26 21:17 -25.62788 -65.34898 19955 ft 437 kts 172°
2026-04-26 21:18 -25.65744 -65.34129 20419 ft 440 kts 173°
2026-04-26 21:18 -25.68768 -65.33343 20912 ft 442 kts 173°
2026-04-26 21:18 -25.71716 -65.32573 21652 ft 437 kts 173°
2026-04-26 21:18 -25.74656 -65.31788 22222 ft 438 kts 173°
2026-04-26 21:19 -25.77617 -65.30836 22630 ft 444 kts 170°
2026-04-26 21:19 -25.80576 -65.29772 23081 ft 447 kts 169°
2026-04-26 21:19 -25.83554 -65.28677 23493 ft 451 kts 169°
2026-04-26 21:19 -25.86520 -65.27580 23904 ft 454 kts 169°
2026-04-26 21:20 -25.89539 -65.26466 24307 ft 456 kts 169°
2026-04-26 21:20 -25.92545 -65.25356 24680 ft 459 kts 169°
2026-04-26 21:20 -25.95616 -65.24221 25030 ft 463 kts 170°
2026-04-26 21:20 -25.98653 -65.23102 25367 ft 466 kts 170°
2026-04-26 21:21 -26.01776 -65.21949 25734 ft 468 kts 170°
2026-04-26 21:21 -26.04851 -65.20813 26091 ft 470 kts 170°
2026-04-26 21:21 -26.07981 -65.19659 26420 ft 473 kts 170°
2026-04-26 21:21 -26.11093 -65.18510 26704 ft 476 kts 170°
2026-04-26 21:22 -26.14266 -65.17338 26975 ft 479 kts 170°
2026-04-26 21:22 -26.17454 -65.16158 27316 ft 481 kts 170°
2026-04-26 21:22 -26.20620 -65.14984 27646 ft 482 kts 170°
2026-04-26 21:23 -26.26997 -65.12619 28381 ft 482 kts 170°
2026-04-26 21:23 -26.30151 -65.11444 28838 ft 480 kts 171°
2026-04-26 21:23 -26.33315 -65.10268 29240 ft 480 kts 171°
2026-04-26 21:23 -26.36497 -65.09087 29641 ft 479 kts 171°
2026-04-26 21:24 -26.39624 -65.07926 30074 ft 477 kts 171°
2026-04-26 21:24 -26.42781 -65.06753 30513 ft 475 kts 171°
2026-04-26 21:24 -26.45900 -65.05592 30952 ft 473 kts 172°
2026-04-26 21:24 -26.49038 -65.04422 31387 ft 471 kts 172°
2026-04-26 21:25 -26.52115 -65.03278 31796 ft 469 kts 172°
2026-04-26 21:25 -26.55243 -65.02112 32151 ft 468 kts 172°
2026-04-26 21:25 -26.58313 -65.00969 32520 ft 466 kts 172°
2026-04-26 21:25 -26.61402 -64.99816 32921 ft 464 kts 172°
2026-04-26 21:26 -26.64450 -64.98679 33277 ft 463 kts 172°
2026-04-26 21:26 -26.67520 -64.97535 33568 ft 463 kts 172°
2026-04-26 21:26 -26.70556 -64.96403 33756 ft 465 kts 173°
2026-04-26 21:26 -26.73657 -64.95246 33990 ft 466 kts 173°
2026-04-26 21:27 -26.76741 -64.94093 34197 ft 468 kts 173°
2026-04-26 21:27 -26.79808 -64.92942 34462 ft 467 kts 173°
2026-04-26 21:27 -26.82902 -64.91783 34697 ft 467 kts 173°
2026-04-26 21:27 -26.85997 -64.90623 34883 ft 469 kts 173°
2026-04-26 21:28 -26.89094 -64.89465 34986 ft 470 kts 173°
2026-04-26 21:28 -26.92194 -64.88308 34991 ft 471 kts 173°
2026-04-26 21:28 -26.98392 -64.85984 34987 ft 470 kts 173°
2026-04-26 21:29 -27.04623 -64.83644 34983 ft 471 kts 173°
2026-04-26 21:29 -27.10823 -64.81314 34981 ft 472 kts 173°
2026-04-26 21:30 -27.17047 -64.78968 34980 ft 472 kts 173°
2026-04-26 21:30 -27.22234 -64.77014 34977 ft 473 kts 173°
2026-04-26 21:31 -27.29542 -64.74254 34974 ft 473 kts 173°
2026-04-26 21:31 -27.35793 -64.71892 34971 ft 474 kts 173°
2026-04-26 21:32 -27.42021 -64.69532 34972 ft 474 kts 173°
2026-04-26 21:32 -27.48244 -64.67165 34966 ft 476 kts 172°
2026-04-26 21:33 -27.54437 -64.64256 34966 ft 487 kts 166°
2026-04-26 21:33 -27.60439 -64.60506 34969 ft 495 kts 161°
2026-04-26 21:34 -27.66324 -64.56517 34969 ft 497 kts 160°
2026-04-26 21:34 -27.72280 -64.52482 34969 ft 497 kts 160°
2026-04-26 21:35 -27.78220 -64.48473 34967 ft 497 kts 161°
2026-04-26 21:35 -27.84154 -64.44473 34970 ft 498 kts 161°
2026-04-26 21:36 -27.89136 -64.41110 34968 ft 499 kts 161°
2026-04-26 21:36 -27.96084 -64.36411 34965 ft 498 kts 161°
2026-04-26 21:37 -28.02012 -64.32399 34965 ft 500 kts 161°
2026-04-26 21:37 -28.07964 -64.28368 34964 ft 500 kts 160°
2026-04-26 21:38 -28.13941 -64.24307 34962 ft 500 kts 160°
2026-04-26 21:38 -28.19932 -64.20232 34963 ft 501 kts 160°
2026-04-26 21:39 -28.25868 -64.16188 34962 ft 500 kts 160°
2026-04-26 21:39 -28.31842 -64.12131 34967 ft 501 kts 161°
2026-04-26 21:40 -28.37827 -64.08057 34971 ft 503 kts 161°
2026-04-26 21:40 -28.43808 -64.03973 34968 ft 501 kts 160°
2026-04-26 21:41 -28.49799 -63.99878 34969 ft 503 kts 160°
2026-04-26 21:41 -28.55816 -63.95758 34971 ft 505 kts 160°
2026-04-26 21:42 -28.61839 -63.91625 34976 ft 503 kts 160°
2026-04-26 21:42 -28.67808 -63.87523 34978 ft 503 kts 161°
2026-04-26 21:43 -28.73804 -63.83400 34981 ft 503 kts 160°
2026-04-26 21:43 -28.79839 -63.79243 34989 ft 505 kts 160°
2026-04-26 21:44 -28.85860 -63.75079 34988 ft 507 kts 160°
2026-04-26 21:44 -28.91874 -63.70892 34997 ft 508 kts 160°
2026-04-26 21:45 -28.97882 -63.66698 34997 ft 506 kts 160°
2026-04-26 21:45 -29.03889 -63.62506 35010 ft 507 kts 160°
2026-04-26 21:46 -29.09871 -63.58328 35009 ft 508 kts 160°
2026-04-26 21:46 -29.15891 -63.54124 35016 ft 507 kts 160°
2026-04-26 21:47 -29.21898 -63.49918 35029 ft 506 kts 160°
2026-04-26 21:47 -29.27944 -63.45678 35029 ft 507 kts 160°
2026-04-26 21:48 -29.33934 -63.41468 35031 ft 505 kts 160°
2026-04-26 21:48 -29.39912 -63.37259 35033 ft 505 kts 160°
2026-04-26 21:49 -29.45878 -63.33058 35029 ft 507 kts 159°
2026-04-26 21:49 -29.51895 -63.28803 35037 ft 505 kts 160°
2026-04-26 21:50 -29.56877 -63.25271 35041 ft 506 kts 159°
2026-04-26 21:50 -29.63866 -63.20309 35044 ft 507 kts 159°
2026-04-26 21:51 -29.69860 -63.16039 35046 ft 505 kts 159°
2026-04-26 21:51 -29.75816 -63.11791 35048 ft 504 kts 159°
2026-04-26 21:52 -29.81774 -63.07541 35041 ft 505 kts 159°
2026-04-26 21:52 -29.87714 -63.03295 35052 ft 505 kts 159°
2026-04-26 21:53 -29.93669 -62.99032 35047 ft 503 kts 159°
2026-04-26 21:53 -29.99619 -62.94765 35047 ft 503 kts 159°
2026-04-26 21:54 -30.05570 -62.90493 35051 ft 503 kts 159°
2026-04-26 21:54 -30.11500 -62.86227 35046 ft 502 kts 159°
2026-04-26 21:55 -30.17446 -62.81947 35054 ft 503 kts 159°
2026-04-26 21:55 -30.23390 -62.77659 35060 ft 503 kts 159°
2026-04-26 21:56 -30.29298 -62.73386 35060 ft 501 kts 159°
2026-04-26 21:56 -30.35194 -62.69122 35056 ft 501 kts 159°
2026-04-26 21:57 -30.41100 -62.64851 35054 ft 500 kts 159°
2026-04-26 21:57 -30.47003 -62.60583 35058 ft 502 kts 159°
2026-04-26 21:58 -30.52885 -62.56314 35064 ft 498 kts 159°
2026-04-26 21:58 -30.58752 -62.52044 35058 ft 497 kts 159°
2026-04-26 21:59 -30.64600 -62.47794 35057 ft 499 kts 159°
2026-04-26 21:59 -30.70493 -62.43492 35064 ft 498 kts 159°
2026-04-26 22:00 -30.76332 -62.39223 35064 ft 497 kts 159°
2026-04-26 22:00 -30.81147 -62.35714 35068 ft 495 kts 159°
2026-04-26 22:01 -30.86993 -62.31482 35060 ft 495 kts 158°
2026-04-26 22:01 -30.92840 -62.27234 35070 ft 497 kts 158°
2026-04-26 22:02 -30.97718 -62.23676 35058 ft 497 kts 158°
2026-04-26 22:02 -31.04528 -62.18703 35064 ft 495 kts 158°
2026-04-26 22:03 -31.10393 -62.14431 35083 ft 494 kts 158°
2026-04-26 22:03 -31.16205 -62.10182 35075 ft 496 kts 158°
2026-04-26 22:04 -31.22043 -62.05898 35072 ft 495 kts 158°
2026-04-26 22:04 -31.27859 -62.01588 35078 ft 494 kts 158°
2026-04-26 22:05 -31.33686 -61.97256 35080 ft 494 kts 158°
2026-04-26 22:05 -31.39462 -61.92957 35067 ft 494 kts 158°
2026-04-26 22:06 -31.45258 -61.88636 35080 ft 495 kts 158°
2026-04-26 22:06 -31.51050 -61.84315 35070 ft 494 kts 157°
2026-04-26 22:07 -31.56837 -61.79985 35077 ft 494 kts 158°
2026-04-26 22:07 -31.61645 -61.76380 35077 ft 492 kts 158°
2026-04-26 22:08 -31.68416 -61.71306 35064 ft 489 kts 158°
2026-04-26 22:08 -31.74090 -61.67039 34976 ft 490 kts 158°
2026-04-26 22:09 -31.76984 -61.64868 35176 ft 493 kts 157°
2026-04-26 22:09 -31.79891 -61.62682 35027 ft 495 kts 157°
2026-04-26 22:09 -31.85656 -61.58328 35083 ft 495 kts 157°
2026-04-26 22:10 -31.91443 -61.53963 35092 ft 494 kts 157°
2026-04-26 22:10 -31.97193 -61.49628 35077 ft 494 kts 157°
2026-04-26 22:11 -32.02998 -61.45237 35069 ft 493 kts 157°
2026-04-26 22:11 -32.08750 -61.40877 35052 ft 493 kts 157°
2026-04-26 22:12 -32.14508 -61.36505 35059 ft 492 kts 157°
2026-04-26 22:12 -32.20285 -61.32118 35063 ft 494 kts 157°
2026-04-26 22:13 -32.26040 -61.27736 35058 ft 494 kts 157°
2026-04-26 22:13 -32.31782 -61.23357 35054 ft 494 kts 157°
2026-04-26 22:14 -32.37566 -61.18937 35053 ft 492 kts 157°
2026-04-26 22:14 -32.43315 -61.14541 35055 ft 492 kts 157°
2026-04-26 22:15 -32.49060 -61.10144 35055 ft 493 kts 157°
2026-04-26 22:15 -32.54818 -61.05724 35046 ft 492 kts 157°
2026-04-26 22:16 -32.60567 -61.01305 35051 ft 493 kts 158°
2026-04-26 22:16 -32.66306 -60.96888 35036 ft 492 kts 158°
2026-04-26 22:17 -32.72081 -60.92435 35049 ft 492 kts 158°
2026-04-26 22:17 -32.77793 -60.88025 35038 ft 492 kts 158°
2026-04-26 22:18 -32.83539 -60.83578 35044 ft 493 kts 158°
2026-04-26 22:18 -32.89258 -60.79143 35045 ft 491 kts 158°
2026-04-26 22:19 -32.95079 -60.74994 35038 ft 487 kts 161°
2026-04-26 22:19 -33.00973 -60.70956 35037 ft 488 kts 161°
2026-04-26 22:20 -33.05880 -60.67581 35037 ft 486 kts 161°
2026-04-26 22:20 -33.12687 -60.62878 35034 ft 487 kts 161°
2026-04-26 22:21 -33.18559 -60.58810 35033 ft 485 kts 161°
2026-04-26 22:21 -33.24369 -60.54775 35030 ft 484 kts 161°
2026-04-26 22:22 -33.30203 -60.50724 35031 ft 485 kts 161°
2026-04-26 22:22 -33.36009 -60.46679 35028 ft 484 kts 161°
2026-04-26 22:23 -33.41826 -60.42622 35026 ft 484 kts 161°
2026-04-26 22:23 -33.47668 -60.38543 35024 ft 484 kts 161°
2026-04-26 22:24 -33.53467 -60.34484 35019 ft 484 kts 161°
2026-04-26 22:24 -33.59275 -60.30416 35022 ft 485 kts 161°
2026-04-26 22:25 -33.65085 -60.26335 35022 ft 484 kts 161°
2026-04-26 22:25 -33.70866 -60.22265 35015 ft 483 kts 161°
2026-04-26 22:26 -33.76664 -60.18183 34742 ft 485 kts 161°
2026-04-26 22:26 -33.79573 -60.15997 34172 ft 495 kts 156°
2026-04-26 22:26 -33.82311 -60.13499 33299 ft 508 kts 150°
2026-04-26 22:27 -33.84944 -60.10536 32437 ft 520 kts 143°
2026-04-26 22:27 -33.87297 -60.07258 31689 ft 529 kts 136°
2026-04-26 22:27 -33.89448 -60.03630 30964 ft 532 kts 132°
2026-04-26 22:27 -33.91473 -59.99960 30225 ft 531 kts 131°
2026-04-26 22:28 -33.93492 -59.96241 29405 ft 530 kts 131°
2026-04-26 22:28 -33.95047 -59.93389 28688 ft 531 kts 132°
2026-04-26 22:28 -33.97056 -59.89728 27698 ft 533 kts 132°
2026-04-26 22:28 -33.99118 -59.85997 26681 ft 535 kts 132°
2026-04-26 22:29 -34.01170 -59.82292 25991 ft 529 kts 132°
2026-04-26 22:29 -34.03199 -59.78627 25433 ft 522 kts 133°
2026-04-26 22:29 -34.05177 -59.75053 24806 ft 517 kts 133°
2026-04-26 22:29 -34.07170 -59.71459 24138 ft 513 kts 133°
2026-04-26 22:30 -34.09142 -59.67899 23521 ft 509 kts 133°
2026-04-26 22:30 -34.11080 -59.64397 22928 ft 505 kts 133°
2026-04-26 22:30 -34.13030 -59.60868 22298 ft 502 kts 133°
2026-04-26 22:30 -34.14950 -59.57388 21729 ft 497 kts 134°
2026-04-26 22:31 -34.16854 -59.53934 21182 ft 492 kts 134°
2026-04-26 22:31 -34.18741 -59.50512 20589 ft 488 kts 134°
2026-04-26 22:31 -34.20602 -59.47130 20008 ft 485 kts 134°
2026-04-26 22:31 -34.22458 -59.43753 19465 ft 480 kts 134°
2026-04-26 22:32 -34.24268 -59.40374 18924 ft 477 kts 133°
2026-04-26 22:32 -34.26041 -59.37008 18328 ft 474 kts 133°
2026-04-26 22:32 -34.27782 -59.33688 17795 ft 470 kts 133°
2026-04-26 22:32 -34.29528 -59.30360 17239 ft 465 kts 132°
2026-04-26 22:33 -34.31247 -59.27085 16690 ft 460 kts 132°
2026-04-26 22:33 -34.34459 -59.20429 15569 ft 457 kts 128°
2026-04-26 22:33 -34.35967 -59.17062 14994 ft 453 kts 127°
2026-04-26 22:34 -34.37446 -59.13757 14520 ft 445 kts 127°
2026-04-26 22:34 -34.38916 -59.10489 13989 ft 439 kts 127°
2026-04-26 22:34 -34.40369 -59.07282 13512 ft 433 kts 127°
2026-04-26 22:34 -34.41809 -59.04126 13078 ft 425 kts 127°
2026-04-26 22:35 -34.43226 -59.01021 12630 ft 418 kts 126°
2026-04-26 22:35 -34.44620 -58.97963 12208 ft 410 kts 126°
2026-04-26 22:35 -34.45992 -58.94949 11635 ft 405 kts 126°
2026-04-26 22:35 -34.47336 -58.92000 11195 ft 399 kts 125°
2026-04-26 22:36 -34.48663 -58.89080 10806 ft 392 kts 125°
2026-04-26 22:36 -34.49950 -58.86237 10647 ft 378 kts 125°
2026-04-26 22:36 -34.51196 -58.83478 10478 ft 365 kts 125°
2026-04-26 22:36 -34.52396 -58.80827 10251 ft 354 kts 125°
2026-04-26 22:37 -34.53560 -58.78252 10119 ft 341 kts 125°
2026-04-26 22:37 -34.54684 -58.75768 9996 ft 329 kts 125°
2026-04-26 22:37 -34.55757 -58.73394 9845 ft 318 kts 126°
2026-04-26 22:37 -34.56815 -58.71059 9476 ft 315 kts 126°
2026-04-26 22:38 -34.57864 -58.68744 9113 ft 313 kts 126°
2026-04-26 22:38 -34.58911 -58.66427 8769 ft 309 kts 126°
2026-04-26 22:38 -34.59939 -58.64153 8430 ft 306 kts 126°
2026-04-26 22:38 -34.60914 -58.61881 8088 ft 305 kts 122°
2026-04-26 22:39 -34.61727 -58.59451 7737 ft 306 kts 116°
2026-04-26 22:39 -34.62394 -58.57013 7404 ft 304 kts 114°
2026-04-26 22:39 -34.63030 -58.54584 7070 ft 301 kts 114°
2026-04-26 22:39 -34.63676 -58.52111 6732 ft 298 kts 114°
2026-04-26 22:40 -34.64308 -58.49705 6405 ft 296 kts 115°
2026-04-26 22:40 -34.64929 -58.47353 6083 ft 293 kts 115°
2026-04-26 22:40 -34.65557 -58.44987 5749 ft 291 kts 115°
2026-04-26 22:40 -34.66175 -58.42661 5421 ft 290 kts 115°
2026-04-26 22:41 -34.66792 -58.40338 5090 ft 288 kts 115°
2026-04-26 22:41 -34.67404 -58.38024 4766 ft 287 kts 115°
2026-04-26 22:41 -34.68010 -58.35736 4443 ft 286 kts 115°
2026-04-26 22:41 -34.68617 -58.33447 4122 ft 284 kts 114°
2026-04-26 22:42 -34.69212 -58.31193 3826 ft 281 kts 114°
2026-04-26 22:42 -34.69801 -58.28949 3715 ft 269 kts 114°
2026-04-26 22:42 -34.70291 -58.26792 3581 ft 265 kts 102°
2026-04-26 22:42 -34.70000 -58.24609 3435 ft 264 kts 60°
2026-04-26 22:43 -34.68778 -58.23084 3288 ft 246 kts 18°
2026-04-26 22:43 -34.67266 -58.22812 3251 ft 201 kts 335°
2026-04-26 22:43 -34.66175 -58.23539 3139 ft 163 kts 304°
2026-04-26 22:43 -34.65476 -58.24496 2988 ft 143 kts 294°
2026-04-26 22:44 -34.64907 -58.25473 2928 ft 140 kts 291°
2026-04-26 22:44 -34.64355 -58.26481 2737 ft 148 kts 292°
2026-04-26 22:44 -34.63775 -58.27532 2511 ft 149 kts 292°
2026-04-26 22:44 -34.63198 -58.28567 2312 ft 149 kts 293°
2026-04-26 22:45 -34.62609 -58.29620 2108 ft 149 kts 293°
2026-04-26 22:45 -34.62029 -58.30655 1943 ft 147 kts 293°
2026-04-26 22:45 -34.61459 -58.31676 1719 ft 146 kts 294°
2026-04-26 22:45 -34.60886 -58.32704 1525 ft 146 kts 294°
2026-04-26 22:46 -34.60321 -58.33713 1336 ft 145 kts 294°
2026-04-26 22:46 -34.59752 -58.34732 1131 ft 145 kts 294°
2026-04-26 22:46 -34.59191 -58.35740 940 ft 144 kts 297°
2026-04-26 22:46 -34.58621 -58.36757 745 ft 145 kts 295°
2026-04-26 22:47 -34.58057 -58.37750 586 ft 145 kts 297°
2026-04-26 22:47 -34.57454 -58.38734 424 ft 143 kts 291°
2026-04-26 22:47 -34.56918 -58.39763 183 ft 142 kts 294°
2026-04-26 22:47 -34.56382 -58.40729 35 ft 139 kts 293°
2026-04-26 22:48 -34.55984 -58.41488 31 ft 64 kts 304°
2026-04-26 22:48 -34.55793 -58.41816 26 ft 43 kts 305°
2026-04-26 22:48 -34.55629 -58.42110 27 ft 39 kts 302°
2026-04-26 22:48 -34.55492 -58.42365 28 ft 27 kts 309°
2026-04-26 22:49 -34.55375 -58.42475 28 ft 6 kts 16°
2026-04-26 22:49 -34.55363 -58.42419 27 ft 9 kts 97°
2026-04-26 22:49 -34.55389 -58.42335 26 ft 11 kts 123°
2026-04-26 22:49 -34.55439 -58.42256 27 ft 11 kts 129°
2026-04-26 22:50 -34.55493 -58.42178 25 ft 12 kts 128°
2026-04-26 22:50 -34.55544 -58.42096 25 ft 11 kts 125°
2026-04-26 22:50 -34.55593 -58.42012 25 ft 12 kts 124°
2026-04-26 22:50 -34.55641 -58.41924 25 ft 12 kts 115°
2026-04-26 22:51 -34.55651 -58.41854 25 ft 7 kts 85°
2026-04-26 22:51 -34.55640 -58.41791 25 ft 7 kts 83°
2026-04-26 22:51 -34.55640 -58.41722 25 ft 8 kts 91°
2026-04-26 22:51 -34.55634 -58.41679 25 ft 5 kts 70°
2026-04-26 22:52 -34.55629 -58.41666 25 ft 0 kts 64°
2026-04-26 22:54 -34.55655 -58.41683 25 ft 0 kts 64°
2026-04-26 22:54 -34.55603 -58.41663 25 ft 0 kts 64°